This is the latest recevied weather packets stored in our database for station/object W2EH. If no packets are shown the sender has not sent any weather packets the latest 10 day(s).
| Time | Temp. | Humidity | Pressure | Rain* | Wind** | Luminosity | Snow |
|---|---|---|---|---|---|---|---|
| 1777990968 | 22.22° C | 86% | 1007.2 hPa | 0 mm | - | 59 W/m² | - |
| 1777990665 | 22.22° C | 87% | 1007.2 hPa | 0 mm | - | 51 W/m² | - |
| 1777990362 | 22.22° C | 87% | 1007.1 hPa | 0 mm | - | 50 W/m² | - |
| 1777990058 | 21.67° C | 87% | 1007 hPa | 0 mm | - | 31 W/m² | - |
| 1777989755 | 21.67° C | 87% | 1007.1 hPa | 0 mm | - | 24 W/m² | - |
| 1777989452 | 21.67° C | 86% | 1006.9 hPa | 0 mm | - | 29 W/m² | - |
| 1777989148 | 21.67° C | 86% | 1007.1 hPa | 0 mm | - | 31 W/m² | - |
| 1777988844 | 21.67° C | 86% | 1006.8 hPa | 0 mm | - | 36 W/m² | - |
| 1777988542 | 21.67° C | 86% | 1006.9 hPa | 0 mm | - | 44 W/m² | - |
| 1777988238 | 21.67° C | 86% | 1006.5 hPa | 0 mm | - | 38 W/m² | - |
| 1777987935 | 21.67° C | 87% | 1006.6 hPa | 0 mm | - | 38 W/m² | - |
| 1777987630 | 21.67° C | 87% | 1006.8 hPa | 0 mm | - | 34 W/m² | - |
| 1777987328 | 21.67° C | 87% | 1006.6 hPa | 0 mm | - | 18 W/m² | - |
| 1777987025 | 21.67° C | 87% | 1006.6 hPa | 0 mm | - | 20 W/m² | - |
| 1777986723 | 21.67° C | 87% | 1006.8 hPa | 0 mm | - | 21 W/m² | - |
| 1777986420 | 21.67° C | 87% | 1006.3 hPa | 0 mm | - | 22 W/m² | - |
| 1777986119 | 21.67° C | 87% | 1006.5 hPa | 0 mm | - | 19 W/m² | - |
| 1777985815 | 21.67° C | 87% | 1006.5 hPa | 0 mm | - | 30 W/m² | - |
| 1777985512 | 21.67° C | 87% | 1006.4 hPa | 0 mm | - | 18 W/m² | - |
| 1777985209 | 21.67° C | 87% | 1006.3 hPa | 0 mm | - | 11 W/m² | - |
| 1777984905 | 21.67° C | 87% | 1006.1 hPa | 0 mm | - | 12 W/m² | - |
| 1777984601 | 21.67° C | 87% | 1006 hPa | 0 mm | - | 11 W/m² | - |
| 1777984298 | 21.11° C | 87% | 1006.2 hPa | 0 mm | - | 9 W/m² | - |
| 1777983994 | 21.11° C | 87% | 1006 hPa | 0 mm | - | 7 W/m² | - |
| 1777983692 | 21.11° C | 87% | 1006.1 hPa | 0 mm | - | 5 W/m² | - |
* Rain latest hour (hover to see other rain measurements)
** Current wind speed in m/s (hover to see current wind gust speed)